STARLINK-35942

Last updated on Fri Dec 19 2025 00:02:08 GMT+0000 (Coordinated Universal Time)

1 66926U 25286B 25352.58336806 -.01263871 00000+0 -66705-2 0 9993 2 66926 53.1563 21.0708 0000852 76.9885 30.2554 15.82643093 2934
UTC large
Height (km)
Speed (km/s)
/
Latitude / Longitude
Inclination (degrees)
Orbital Period (minutes)
Azimuth
Elevation
Range (km)
Doppler Factor

Next 0 passes for location: London (51.5072 / 0.1276)

Sorry there are no passes over London.